Wetbulb
59.13 59.23 59.18 60.18 61.42 61.62 61.46 61.46 61.67 61.73 61.70 61.81 62.10 62.32 62.39 62.61 61.87 59.61 55.53 60.52 64.32 67.52 67.31 62.69 62.23 62.02 63.55 62.72 64.98 64.40 58.26 55.61 56.71 56.35 57.09 58.98 58.59 57.35 57.55 56.70 58.07 61.58 61.60 65.70 69.32
59.12 59.43 58.96 59.48 60.75 61.42 61.03 60.86 61.00 61.21 61.44 61.69 61.95 62.09 61.84 61.89 58.35 55.60 62.47 66.75 68.61 68.97 60.21 61.13 59.56 60.78 59.83 61.23 62.76 59.96 57.77 57.80 60.20 59.84 58.21 57.39 58.26 56.44 54.88 55.40 57.37 59.03 61.53 66.06 68.50
58.87 59.65 58.95 59.25 60.61 61.10 60.72 60.65 60.95 61.14 61.33 61.54 61.59 61.46 61.42 60.92 54.59 52.16 69.38 68.43 67.76 68.23 61.61 62.08 60.94 59.80 58.01 61.31 61.14 60.21 57.72 60.46 59.30 59.93 59.67 57.08 56.14 57.39 55.32 55.65 57.94 58.30 59.64 63.66 65.82
58.46 59.51 58.68 59.57 60.58 60.44 60.45 60.55 60.80 60.90 61.09 61.12 61.09 61.06 61.54 58.41 44.94 58.40 69.39 69.24 69.97 63.95 61.19 61.17 60.97 58.37 56.53 57.36 60.80 57.07 60.46 59.80 58.72 57.48 57.79 56.18 57.36 55.48 56.53 58.20 58.51 59.23 60.76 62.93 64.48
58.32 58.66 58.76 59.15 59.60 59.77 60.00 60.15 60.38 60.56 60.60 60.75 60.68 60.66 58.37 52.27 51.67 58.25 66.00 68.46 65.70 62.36 59.67 59.85 60.56 59.16 56.54 58.01 59.32 56.84 58.28 57.31 57.95 56.84 57.20 57.60 56.20 56.23 56.31 58.36 57.72 58.58 60.79 61.96 63.11
58.07 58.09 58.76 58.78 58.98 59.22 59.47 59.85 60.19 60.33 60.10 60.40 60.46 59.89 55.73 47.78 57.28 57.89 58.45 63.38 63.73 61.09 59.69 60.49 61.92 62.65 58.16 56.47 55.64 57.00 57.14 55.85 55.72 55.71 56.04 55.52 55.39 54.57 57.73 58.17 56.84 58.11 59.66 61.21 62.21
57.67 57.94 58.49 58.43 58.28 58.56 58.98 59.19 59.42 59.27 59.27 59.98 60.26 58.61 53.57 51.55 57.99 60.34 59.21 57.02 61.42 61.18 59.18 61.36 63.81 60.59 60.19 55.89 56.33 55.66 53.33 54.21 54.75 55.22 54.69 55.95 53.20 53.36 57.70 56.65 56.19 57.35 58.74 60.12 61.69
57.09 57.84 57.73 57.92 57.67 57.85 58.40 58.31 58.46 58.83 59.25 59.84 60.02 57.35 50.61 58.24 58.79 57.17 58.28 57.88 57.60 59.57 61.04 62.06 62.16 62.11 58.43 57.17 54.41 53.20 54.47 50.35 53.28 53.14 53.51 52.69 52.78 55.76 55.83 54.77 55.02 56.78 58.11 59.06 59.90
56.75 57.27 57.22 56.85 57.28 57.15 57.61 57.82 58.18 58.93 59.65 59.60 57.02 54.85 49.09 60.21 54.66 56.63 58.72 54.82 57.30 59.01 60.55 61.58 61.32 58.58 57.01 53.78 52.02 51.82 50.52 51.23 52.71 53.88 53.29 50.99 52.34 52.63 54.14 53.86 54.34 55.45 56.57 57.99 58.16
56.48 56.77 56.75 56.54 56.29 56.91 57.36 57.75 58.93 58.65 58.58 57.89 56.42 50.76 53.16 51.86 56.26 57.18 58.82 56.29 56.49 57.29 56.44 57.58 58.13 55.36 54.88 53.03 47.53 50.22 50.25 52.30 51.40 54.55 51.18 50.95 51.10 54.28 53.20 53.06 53.22 54.18 55.20 55.97 56.71
56.02 56.40 56.74 56.74 56.69 57.06 56.70 57.63 52.98 51.62 52.83 49.73 50.40 49.92 52.79 56.28 55.75 53.70 55.61 55.53 56.24 55.50 52.25 55.05 53.22 51.25 54.49 55.20 54.87 53.55 52.59 51.07 51.68 48.68 47.92 49.52 51.26 52.34 53.38 53.33 52.62 53.28 53.76 54.43 55.13
55.55 55.77 56.62 56.66 57.03 56.79 56.31 52.91 52.23 53.78 47.84 54.16 51.73 51.35 53.81 54.53 50.98 52.64 56.19 52.21 52.47 50.02 54.64 51.43 50.21 55.72 57.31 56.31 54.26 52.37 51.16 50.89 51.22 48.43 47.73 50.32 50.00 51.52 52.15 52.15 52.36 52.58 53.47 54.19 54.72
55.59 55.30 56.20 56.89 56.33 55.76 55.07 54.00 57.15 56.49 48.90 50.91 53.26 51.84 52.54 53.77 50.79 50.90 54.02 52.76 50.61 50.22 53.00 50.73 52.78 54.33 55.60 51.11 49.89 50.93 50.00 49.19 47.77 48.41 48.78 46.77 45.32 48.55 50.12 51.04 51.08 51.79 53.04 53.80 54.70
56.05 55.81 56.36 56.83 53.81 56.35 54.28 56.85 58.84 57.89 45.28 45.82 49.07 51.50 53.31 54.48 49.28 54.56 55.30 52.60 50.32 49.24 52.06 53.23 51.71 50.65 51.03 51.79 51.92 49.43 51.76 48.82 47.51 44.51 40.83 47.22 39.57 46.49 48.30 48.95 49.25 50.50 51.59 52.55 53.87
55.93 56.47 56.37 56.35 56.41 55.08 57.29 58.94 58.01 54.63 34.48 46.88 48.96 55.51 54.20 51.57 50.86 50.89 55.07 53.39 48.45 49.49 51.19 47.86 47.62 48.74 49.14 49.46 52.14 49.50 49.54 48.05 47.40 45.56 44.53 44.22 41.34 44.37 47.55 46.95 47.41 49.44 50.68 51.59 52.89
56.35 56.87 56.21 56.67 56.52 56.13 57.78 56.38 55.16 43.72 34.48 44.56 48.94 48.48 48.96 50.56 49.99 51.70 51.77 54.31 53.94 49.40 50.03 48.97 51.89 50.39 49.51 49.08 49.61 50.21 48.14 47.59 47.09 45.37 39.10 43.17 42.39 43.03 45.01 44.89 46.16 49.05 50.01 50.73 51.13
57.48 57.27 56.26 58.08 56.75 57.92 56.44 54.37 44.06 38.14 46.14 42.93 44.27 47.65 48.02 46.61 47.25 48.52 47.50 47.80 46.35 43.75 44.96 46.99 47.20 48.56 50.27 46.96 48.79 48.17 46.05 40.48 39.37 39.04 38.24 43.27 41.24 44.02 45.39 45.79 46.95 48.04 49.05 50.14 51.20
57.40 57.32 57.30 57.15 59.08 58.16 54.54 48.63 38.13 43.99 42.30 47.49 46.05 46.18 44.52 46.29 46.96 46.79 46.52 45.10 47.25 46.77 46.01 43.15 40.00 46.70 48.07 47.58 46.12 45.99 45.96 40.80 34.70 36.81 40.32 42.88 39.25 43.18 45.69 47.45 48.72 49.56 49.91 50.44 50.47
56.60 56.95 56.41 57.37 58.92 57.54 51.53 43.43 42.38 43.87 46.10 45.61 44.80 42.61 42.96 44.71 46.31 46.13 45.88 45.62 45.42 46.10 44.50 44.70 41.23 45.68 46.37 47.83 47.49 45.37 41.85 46.12 41.91 42.34 38.70 41.36 43.35 44.51 45.70 45.99 47.59 48.09 48.52 48.37 49.26
55.59 53.82 53.73 58.16 58.12 54.90 48.77 44.53 45.78 46.69 45.76 45.93 41.92 44.13 41.00 44.13 43.68 44.08 44.58 45.15 44.36 44.62 46.64 45.42 40.33 44.40 44.47 47.05 46.88 46.17 46.94 41.02 42.19 35.18 34.91 39.83 39.98 41.34 42.44 43.63 45.48 46.02 46.56 47.38 48.48
53.91 49.55 54.32 56.36 57.36 51.45 44.58 46.13 46.62 47.93 47.01 45.40 45.04 44.50 44.53 42.53 44.10 43.15 44.09 44.57 44.86 44.59 46.00 45.97 44.47 40.85 44.06 43.93 44.34 43.56 43.13 43.26 43.14 41.62 36.62 35.79 39.42 45.78 45.00 45.17 44.99 45.87 46.87 47.38 47.74
52.32 45.76 53.53 56.03 48.61 50.09 46.20 47.16 44.61 47.32 48.46 47.10 47.33 47.14 45.80 44.72 44.72 44.89 43.45 44.92 44.52 44.83 44.01 45.00 45.23 40.42 41.48 42.77 44.02 44.87 44.55 44.79 39.92 38.49 40.00 39.10 38.95 45.44 46.40 45.80 46.24 45.87 46.58 47.42 47.84
48.89 49.92 53.58 54.36 45.38 47.88 49.22 46.44 46.70 46.12 46.39 45.76 45.25 46.45 46.81 45.78 43.45 44.84 44.08 43.42 44.65 44.26 43.67 45.05 42.78 37.91 37.85 40.69 42.19 41.11 43.38 43.73 43.05 42.31 38.42 36.84 39.04 44.98 45.07 45.01 45.88 45.89 46.58 47.02 47.37
50.28 45.59 49.17 50.63 51.21 47.87 46.81 46.48 45.18 45.89 45.90 45.08 45.07 45.41 44.86 44.36 45.55 43.29 42.57 42.82 44.29 45.53 43.37 45.44 42.77 41.18 38.70 40.26 43.01 39.53 41.06 42.04 41.72 38.91 39.97 40.42 41.20 41.91 43.39 43.93 44.94 45.94 46.69 46.90 46.77
49.56 47.42 48.42 45.51 46.92 47.85 47.76 46.84 44.90 43.84 45.47 45.20 44.33 44.24 44.29 42.34 43.49 43.04 43.53 42.03 43.91 44.24 43.90 44.43 40.28 40.18 40.07 40.20 40.52 40.65 40.70 40.71 39.83 41.49 38.90 41.27 39.84 43.30 44.15 45.01 45.83 46.51 46.45 45.96 46.00
47.86 47.27 48.47 47.02 46.98 47.03 45.55 45.09 44.91 45.61 44.90 43.77 42.86 44.20 44.23 42.80 43.77 42.88 43.94 43.54 42.35 43.08 42.69 43.01 40.33 40.35 39.07 40.16 40.05 38.90 41.17 41.15 41.10 41.10 40.94 41.23 40.47 46.11 46.97 46.08 45.26 45.26 45.46 45.11 45.73
51.99 53.02 48.31 45.93 45.94 44.96 45.95 45.81 45.83 46.67 43.62 43.96 44.09 43.72 42.74 42.61 44.81 45.95 46.24 45.60 45.01 43.24 42.07 41.59 41.71 40.13 38.62 40.19 40.41 38.36 41.89 42.49 42.47 42.86 41.97 38.68 42.46 44.69 43.01 43.74 44.56 45.35 45.28 44.81 44.47
MSLP
1019.42 1019.30 1019.08 1018.85 1018.62 1018.46 1018.32 1018.17 1017.97 1017.76 1017.54 1017.28 1016.92 1016.60 1016.28 1015.85 1015.20 1013.65 1011.86 1010.38 1010.20 1010.42 1010.59 1009.72 1009.03 1008.67 1008.81 1008.03 1007.85 1007.27 1006.02 1004.51 1004.11 1004.25 1004.61 1005.75 1006.19 1007.27 1007.62 1007.66 1008.27 1008.71 1008.71 1009.03 1010.01
1019.43 1019.22 1019.01 1018.79 1018.54 1018.30 1018.23 1018.13 1017.95 1017.73 1017.48 1017.21 1016.90 1016.58 1016.17 1015.65 1014.47 1011.96 1010.27 1010.13 1010.26 1010.52 1010.08 1009.12 1008.34 1008.21 1008.08 1007.70 1007.32 1006.73 1005.60 1004.36 1003.81 1004.27 1004.62 1005.75 1006.07 1007.05 1007.60 1007.60 1008.10 1008.86 1009.58 1009.96 1010.50
1019.35 1019.04 1018.82 1018.62 1018.37 1018.18 1018.12 1018.03 1017.87 1017.66 1017.43 1017.15 1016.89 1016.56 1016.12 1015.54 1013.22 1009.43 1009.17 1009.16 1009.73 1010.34 1009.80 1009.07 1008.49 1008.44 1007.74 1007.34 1006.80 1006.07 1005.33 1004.57 1004.66 1004.80 1005.05 1005.78 1006.22 1006.93 1007.26 1007.38 1007.39 1007.94 1008.95 1010.05 1010.54
1019.19 1018.98 1018.77 1018.58 1018.29 1018.15 1018.10 1018.00 1017.80 1017.58 1017.34 1017.15 1016.93 1016.54 1015.96 1015.11 1011.45 1008.75 1009.28 1009.28 1009.39 1009.73 1009.29 1008.80 1008.42 1007.96 1007.69 1006.92 1006.56 1006.14 1005.45 1005.40 1005.49 1005.95 1005.68 1005.97 1006.42 1007.00 1007.20 1007.28 1007.87 1007.96 1008.39 1009.78 1010.20
1019.13 1018.93 1018.72 1018.64 1018.47 1018.31 1018.17 1018.02 1017.82 1017.58 1017.35 1017.15 1016.85 1016.48 1015.56 1013.24 1010.61 1008.98 1009.25 1009.04 1009.16 1009.27 1008.66 1008.34 1007.86 1007.78 1007.23 1006.69 1006.49 1006.56 1005.82 1006.20 1006.24 1006.56 1006.37 1006.50 1006.80 1006.97 1007.27 1007.51 1008.34 1008.53 1008.92 1009.59 1009.96
1019.10 1018.90 1018.69 1018.61 1018.53 1018.40 1018.23 1018.05 1017.84 1017.59 1017.36 1017.11 1016.79 1016.51 1015.31 1012.53 1009.86 1009.11 1009.37 1008.91 1008.49 1008.51 1008.13 1007.96 1007.45 1007.57 1007.57 1007.33 1007.37 1006.80 1006.51 1006.89 1007.14 1007.06 1007.16 1007.10 1007.47 1007.76 1007.20 1007.90 1008.40 1008.72 1009.05 1009.50 1009.87
1019.02 1018.81 1018.64 1018.58 1018.51 1018.39 1018.24 1018.04 1017.82 1017.55 1017.29 1016.98 1016.69 1016.02 1014.17 1011.39 1009.52 1008.88 1009.29 1008.99 1008.59 1008.27 1007.58 1007.52 1007.27 1007.71 1007.69 1007.61 1008.28 1007.68 1007.55 1007.56 1007.75 1007.74 1007.65 1007.81 1007.67 1007.24 1007.29 1008.17 1008.36 1008.75 1009.05 1009.51 1009.98
1018.87 1018.72 1018.61 1018.55 1018.50 1018.37 1018.15 1017.90 1017.62 1017.32 1017.03 1016.69 1016.48 1015.40 1012.70 1010.19 1009.49 1009.48 1009.13 1008.54 1008.30 1008.14 1007.72 1007.49 1007.66 1007.64 1008.05 1008.21 1008.25 1008.17 1007.85 1007.73 1008.26 1008.48 1008.74 1009.02 1007.15 1006.92 1007.73 1008.10 1008.24 1008.57 1008.78 1009.60 1010.10
1018.80 1018.72 1018.57 1018.46 1018.45 1018.34 1018.06 1017.65 1017.24 1016.89 1016.55 1016.37 1015.88 1014.21 1011.08 1009.10 1009.01 1008.53 1008.49 1007.86 1007.70 1007.72 1007.76 1007.77 1007.70 1007.28 1007.91 1007.91 1007.73 1007.68 1007.15 1008.01 1008.86 1008.92 1008.87 1009.34 1007.69 1007.99 1007.99 1008.14 1008.21 1008.42 1008.60 1009.28 1010.05
1018.74 1018.62 1018.52 1018.52 1018.44 1018.23 1017.87 1017.25 1016.23 1016.33 1015.48 1015.17 1014.51 1013.49 1010.57 1008.04 1007.42 1007.52 1007.36 1007.40 1007.35 1007.47 1007.71 1007.55 1007.31 1006.83 1006.73 1006.86 1006.06 1006.42 1007.15 1007.51 1008.42 1009.27 1009.40 1008.92 1008.31 1007.62 1008.06 1008.23 1008.25 1008.24 1008.57 1009.01 1009.79
1018.70 1018.45 1018.45 1018.43 1018.35 1018.17 1017.69 1015.73 1015.56 1015.08 1014.29 1012.82 1011.53 1010.86 1009.16 1008.71 1007.85 1007.27 1007.10 1007.22 1007.04 1007.21 1006.78 1006.78 1006.53 1005.73 1005.68 1005.82 1005.69 1006.13 1006.53 1007.41 1008.61 1009.55 1009.59 1008.80 1007.88 1007.41 1007.31 1008.00 1008.52 1008.53 1008.49 1008.64 1009.36
1018.64 1018.40 1018.44 1018.51 1018.38 1018.21 1017.80 1015.76 1014.67 1014.76 1013.09 1011.16 1011.01 1010.36 1009.69 1009.15 1007.59 1006.79 1007.14 1007.04 1006.79 1006.42 1005.95 1006.71 1005.85 1005.34 1005.47 1005.67 1006.16 1006.66 1006.83 1007.50 1008.52 1009.69 1009.77 1009.21 1008.36 1007.42 1007.26 1007.98 1008.60 1008.77 1008.66 1008.65 1009.07
1018.63 1018.44 1018.52 1018.42 1018.28 1017.83 1016.49 1015.52 1014.82 1014.87 1013.07 1010.16 1009.83 1009.40 1008.63 1008.70 1006.98 1006.84 1007.34 1006.68 1006.45 1006.18 1005.89 1005.58 1005.47 1005.65 1005.76 1006.47 1006.64 1006.88 1007.17 1007.56 1008.54 1009.28 1009.66 1009.72 1008.21 1006.85 1007.99 1008.56 1009.03 1009.23 1009.42 1009.22 1008.97
1018.71 1018.43 1018.37 1018.24 1018.34 1015.95 1015.15 1014.78 1014.75 1014.78 1012.57 1009.84 1009.12 1008.36 1008.38 1008.29 1007.59 1007.53 1007.30 1006.95 1006.08 1005.63 1006.31 1005.73 1006.50 1006.38 1006.64 1006.71 1007.09 1006.88 1007.51 1008.31 1008.52 1008.98 1008.90 1008.98 1007.55 1006.82 1007.32 1008.16 1008.71 1009.32 1009.72 1009.67 1009.76
1018.71 1018.40 1018.27 1018.23 1017.08 1015.64 1014.61 1014.78 1014.62 1014.50 1011.65 1009.49 1008.48 1008.18 1008.05 1008.09 1007.59 1007.59 1007.76 1007.19 1006.12 1005.45 1005.97 1005.98 1006.56 1006.91 1007.23 1007.05 1007.49 1007.42 1008.10 1008.15 1008.47 1008.45 1008.48 1008.31 1008.25 1006.53 1007.79 1008.18 1009.09 1010.03 1010.37 1010.47 1010.53
1018.59 1018.39 1018.02 1017.52 1017.14 1015.76 1015.45 1015.17 1014.53 1013.19 1010.33 1009.19 1008.71 1008.11 1007.98 1008.19 1007.68 1007.79 1007.50 1007.38 1006.68 1006.46 1006.51 1006.70 1007.31 1007.43 1007.74 1008.58 1008.41 1008.58 1008.50 1008.61 1008.66 1008.37 1007.90 1006.90 1007.85 1006.68 1007.91 1009.21 1010.02 1010.61 1010.99 1011.18 1011.37
1018.34 1018.29 1017.92 1016.41 1015.08 1015.48 1015.33 1014.03 1012.43 1010.59 1009.99 1009.46 1008.95 1008.60 1007.76 1008.33 1007.79 1007.53 1007.32 1007.02 1006.40 1006.48 1006.53 1007.12 1007.59 1008.52 1008.61 1008.82 1009.06 1008.69 1008.15 1007.66 1007.69 1007.67 1006.93 1007.77 1008.13 1007.47 1009.27 1010.45 1010.98 1011.19 1011.61 1011.91 1012.08
1018.16 1018.13 1017.07 1016.14 1015.08 1015.29 1015.22 1013.30 1011.31 1010.07 1010.22 1009.71 1009.33 1009.03 1008.46 1008.65 1008.00 1007.81 1007.57 1007.20 1007.30 1006.67 1006.03 1006.54 1008.06 1008.63 1008.99 1008.58 1008.13 1008.40 1008.09 1007.29 1006.65 1006.28 1006.37 1008.01 1007.67 1008.36 1010.10 1010.86 1011.38 1011.78 1012.16 1012.43 1012.70
1018.21 1017.07 1015.89 1014.72 1015.02 1015.32 1014.56 1011.44 1010.15 1010.11 1010.02 1009.61 1009.72 1009.62 1009.66 1008.92 1008.42 1007.84 1007.69 1007.41 1007.97 1007.90 1006.73 1006.19 1008.07 1009.44 1009.47 1009.34 1009.22 1008.87 1008.82 1008.69 1007.68 1007.34 1007.24 1006.73 1007.71 1009.30 1010.24 1010.91 1011.45 1012.05 1012.67 1013.16 1013.50
1016.99 1015.46 1013.97 1014.11 1014.60 1014.66 1013.10 1010.50 1009.82 1010.22 1010.06 1009.88 1009.39 1009.47 1009.34 1008.62 1008.49 1008.67 1008.32 1009.14 1009.07 1009.06 1008.45 1007.23 1008.01 1009.39 1010.01 1009.90 1009.85 1009.41 1009.35 1008.84 1008.31 1007.25 1006.55 1006.10 1006.93 1007.51 1009.74 1010.77 1011.63 1012.31 1013.07 1013.66 1013.95
1017.08 1014.59 1013.91 1014.04 1014.09 1013.04 1011.20 1009.63 1009.79 1010.03 1010.11 1009.73 1009.16 1008.66 1008.50 1008.98 1009.09 1008.96 1008.71 1009.91 1009.97 1009.46 1009.01 1008.23 1007.85 1009.87 1010.12 1009.65 1008.98 1009.83 1009.24 1009.04 1008.74 1008.09 1007.31 1006.89 1007.29 1008.27 1009.22 1010.61 1011.62 1012.60 1013.37 1013.89 1014.32
1015.86 1013.86 1013.53 1013.78 1012.80 1010.81 1009.68 1009.64 1010.18 1009.61 1009.78 1009.53 1009.37 1008.85 1008.65 1009.00 1008.59 1008.75 1009.24 1010.16 1010.91 1010.47 1009.36 1009.25 1008.52 1008.80 1009.39 1010.12 1010.26 1009.76 1008.91 1008.68 1008.39 1008.14 1008.15 1008.35 1008.76 1009.51 1010.01 1011.18 1011.95 1012.83 1013.66 1014.23 1014.71
1015.10 1012.87 1013.22 1013.18 1011.04 1009.39 1009.06 1009.58 1009.90 1009.72 1009.61 1009.48 1009.18 1009.25 1009.16 1008.89 1009.20 1009.59 1010.37 1011.53 1011.54 1011.16 1010.46 1009.86 1009.03 1008.86 1009.71 1010.37 1010.37 1009.83 1009.39 1009.33 1009.18 1009.29 1008.71 1008.67 1009.06 1010.17 1011.10 1011.67 1012.29 1012.88 1013.62 1014.32 1014.85
1015.32 1012.24 1012.10 1012.20 1010.64 1009.94 1009.00 1008.77 1009.18 1010.07 1009.73 1009.73 1009.43 1009.47 1009.21 1009.07 1009.41 1009.77 1010.65 1011.77 1012.11 1011.73 1011.58 1010.94 1009.46 1008.76 1008.63 1009.10 1008.90 1009.39 1009.52 1009.83 1009.66 1009.15 1008.61 1008.62 1009.03 1010.39 1011.06 1011.65 1012.42 1013.09 1013.83 1014.39 1015.05
1015.39 1012.25 1011.35 1010.33 1009.87 1009.49 1009.17 1008.86 1008.77 1009.26 1009.83 1009.77 1009.40 1009.50 1009.28 1009.13 1009.42 1009.73 1010.69 1011.67 1012.07 1012.14 1011.70 1011.01 1009.64 1009.51 1009.55 1009.78 1009.89 1009.79 1009.82 1010.01 1009.85 1009.45 1009.19 1008.94 1009.71 1009.80 1010.68 1011.42 1012.15 1013.10 1013.88 1014.47 1015.02
1014.91 1013.14 1011.92 1010.70 1010.18 1009.26 1008.98 1008.78 1008.75 1008.89 1009.53 1009.52 1009.67 1009.62 1009.80 1009.59 1009.70 1009.66 1010.33 1010.83 1010.98 1012.06 1011.51 1011.22 1010.35 1010.22 1009.83 1010.30 1010.49 1010.37 1010.20 1010.12 1010.03 1009.99 1009.95 1010.04 1010.18 1010.42 1010.79 1011.77 1012.53 1013.50 1014.19 1014.87 1015.34
1014.67 1013.72 1013.29 1010.68 1009.85 1009.41 1008.55 1008.75 1008.73 1009.03 1010.01 1010.19 1010.15 1010.20 1010.45 1010.99 1010.95 1010.88 1010.89 1011.00 1011.04 1011.13 1011.20 1011.03 1010.72 1010.52 1009.93 1010.71 1010.65 1010.21 1009.70 1009.81 1010.10 1010.36 1010.45 1010.48 1011.03 1011.45 1012.12 1012.61 1013.21 1013.73 1014.69 1015.20 1015.99
Wind_Speed
10 10 12 12 12 9 9 8 9 10 10 12 14 15 16 16 19 21 19 13 5 2 5 11 9 7 6 8 7 3 8 10 11 8 7 10 12 5 3 2 6 6 3 6 16
11 9 11 12 12 10 7 8 8 10 11 12 14 15 17 18 20 21 19 7 10 5 10 10 8 7 7 10 6 8 10 14 3 6 6 13 12 10 7 8 8 7 4 6 13
12 13 11 13 13 10 7 7 9 10 11 12 14 15 17 19 18 11 15 23 19 10 14 11 7 8 12 8 11 9 13 8 3 3 5 13 11 9 7 7 8 10 12 11 14
12 13 10 11 9 6 6 7 9 11 11 12 13 15 16 13 8 9 11 10 17 15 13 11 10 10 8 12 13 10 11 6 5 4 8 12 10 8 10 2 5 2 8 13 15
11 12 10 8 6 5 6 8 10 11 12 12 13 14 12 12 19 17 11 2 13 17 15 13 14 11 10 9 10 13 5 3 4 7 7 7 9 3 10 4 3 3 8 12 13
13 10 11 7 5 7 8 10 12 12 12 13 13 12 15 20 13 14 8 4 11 16 15 14 13 13 8 4 6 5 1 3 5 7 5 8 5 3 8 6 6 7 10 12 12
12 10 11 6 5 7 10 12 13 13 13 14 13 11 15 22 13 4 11 8 11 13 13 13 11 9 6 4 1 1 6 4 5 5 4 5 7 12 6 8 8 9 10 11 12
11 10 10 6 6 10 12 14 15 15 15 14 12 13 15 16 14 23 18 13 11 13 10 7 7 12 6 4 5 7 3 4 5 1 5 6 9 11 7 8 8 10 10 11 12
9 9 9 6 9 12 14 16 18 17 16 12 12 11 14 2 13 18 17 13 11 10 9 8 9 10 11 11 10 9 11 15 8 3 2 7 8 7 4 6 8 9 10 12 12
7 7 8 8 10 11 15 19 17 14 13 10 9 9 10 4 7 11 12 13 13 13 10 11 9 10 12 13 14 15 16 13 11 9 10 10 15 5 7 7 9 10 11 12 13
6 6 5 7 8 10 13 11 7 9 11 13 1 14 10 16 5 10 12 13 11 14 13 14 13 15 19 16 15 6 10 13 3 3 5 12 13 11 8 10 9 11 12 12 13
5 6 7 9 9 8 9 7 9 7 12 14 20 18 17 11 7 10 8 13 13 16 16 10 14 16 14 17 13 10 11 11 4 3 2 14 20 15 5 4 5 8 11 13 13
4 3 6 8 9 8 8 12 8 10 8 3 6 9 6 4 7 11 12 11 14 18 17 14 7 3 6 8 12 12 12 9 7 4 7 14 15 16 7 5 2 1 5 10 12
6 2 5 6 7 3 6 3 8 5 8 7 6 4 5 4 4 2 3 5 8 14 15 15 7 6 9 14 12 14 6 4 6 4 7 5 8 8 8 5 2 6 6 3 7
6 3 4 4 11 5 5 8 7 4 2 3 5 3 1 5 9 5 1 6 9 11 10 7 8 10 10 3 10 4 6 5 5 8 6 12 6 1 5 5 6 9 8 6 2
7 6 4 7 7 10 11 11 5 5 2 3 2 5 8 2 2 5 6 3 6 6 6 10 6 3 4 4 5 9 8 6 4 6 9 11 7 3 4 6 5 7 9 8 4
8 8 8 3 3 3 11 6 5 4 2 3 1 4 3 4 4 9 12 9 7 11 10 11 7 5 8 10 5 7 7 5 7 6 4 4 5 6 7 5 5 6 9 9 8
8 8 11 10 5 5 7 6 4 8 1 3 1 4 1 1 2 4 8 7 4 8 13 11 8 8 3 4 4 10 7 8 7 6 2 5 6 7 7 6 8 8 9 10 10
6 9 8 6 8 5 7 9 7 5 5 3 6 7 3 3 5 4 4 3 5 6 6 8 7 5 4 1 4 7 7 5 7 7 8 8 8 7 7 8 8 9 10 9 10
7 6 9 7 7 5 7 10 5 2 4 3 1 8 10 3 1 3 6 2 0 3 5 3 6 1 4 2 3 4 2 4 5 5 8 6 4 5 11 9 9 10 10 9 9
9 6 6 7 6 6 8 7 3 2 3 4 5 4 4 3 5 7 2 4 0 1 4 3 3 5 4 8 4 6 6 5 5 4 6 7 5 7 10 10 8 9 8 8 8
8 6 5 7 6 6 7 3 2 3 3 4 4 4 4 7 4 4 2 4 3 4 2 3 5 6 4 4 2 4 4 6 6 6 4 4 1 1 9 7 7 8 7 6 6
7 5 5 7 7 8 6 4 4 4 3 2 3 2 1 4 4 3 3 2 2 3 2 1 4 5 6 5 4 5 8 7 4 2 9 7 4 5 6 7 7 8 8 6 5
7 5 5 8 10 10 11 11 6 3 4 3 2 2 2 4 2 3 4 2 1 2 5 5 3 6 5 6 3 5 8 9 10 6 8 9 5 9 8 8 8 6 6 6 4
5 7 4 4 11 13 11 6 7 4 4 4 3 7 6 4 5 4 4 4 1 1 3 5 4 2 2 2 2 4 5 9 13 13 10 8 5 5 3 7 7 6 6 5 4
5 6 3 10 6 8 10 11 13 5 4 3 6 1 4 4 4 2 6 5 2 5 4 2 1 1 3 1 4 8 9 10 11 13 13 12 14 8 4 2 5 6 6 5 4
6 8 7 2 7 8 10 10 8 5 3 2 4 4 5 3 3 5 5 5 4 4 5 4 2 2 1 0 5 11 11 13 8 7 8 10 4 5 4 5 6 5 5 3 3
Wind_Direction
329 324 325 320 320 309 319 327 330 330 328 325 324 325 322 317 304 284 256 250 233 314 284 274 264 245 242 242 239 270 249 241 226 229 160 157 174 179 57 159 204 171 322 59 135
322 306 320 318 315 314 310 320 325 325 325 324 323 325 321 318 302 279 259 251 271 241 268 253 248 226 229 243 212 230 232 244 286 189 165 177 191 166 191 198 195 188 146 159 163
318 323 318 322 311 304 301 315 319 321 321 323 325 322 317 311 293 252 20 218 221 220 245 272 267 243 241 226 228 215 248 246 121 186 191 177 192 168 213 201 234 206 176 181 182
310 319 316 326 328 316 312 313 316 317 319 323 323 318 312 294 253 48 9 303 214 219 230 231 229 228 233 218 236 249 237 278 138 147 174 174 177 199 219 82 14 150 155 178 190
316 320 306 318 327 328 323 313 310 311 317 319 318 319 307 247 250 281 344 307 187 204 218 220 218 218 228 242 230 234 220 236 157 167 190 160 176 218 216 203 201 173 166 180 193
317 311 307 294 322 325 319 313 311 311 313 313 310 312 269 269 264 261 321 234 199 200 212 221 230 217 277 282 246 335 176 166 179 156 163 196 170 223 204 148 206 190 184 186 195
313 310 319 293 308 312 309 308 307 306 307 304 301 287 269 251 283 278 306 262 231 219 220 216 231 179 210 226 232 315 185 171 205 180 137 268 214 224 143 183 189 197 186 189 191
310 318 316 290 300 312 305 304 301 298 295 294 290 271 266 270 252 249 259 248 234 221 239 189 189 204 207 72 170 221 218 220 124 188 88 282 261 109 150 184 201 198 190 189 192
307 316 316 310 310 315 305 301 294 286 284 278 257 235 268 315 233 239 240 223 200 199 197 180 199 189 176 199 201 204 216 215 240 250 234 219 275 101 154 201 211 218 214 191 197
303 321 332 311 302 307 308 292 278 284 236 241 251 268 248 285 203 233 195 223 183 170 162 183 205 201 205 199 212 210 223 205 230 231 254 243 259 232 177 224 242 236 228 212 209
295 327 327 315 307 311 311 285 223 191 225 244 76 250 294 338 227 211 180 195 194 187 187 197 208 207 202 217 232 272 224 227 219 53 281 270 278 285 256 198 243 261 254 227 210
285 328 333 327 304 308 283 284 12 342 296 252 245 262 274 281 247 168 196 190 188 196 190 171 219 211 218 215 227 239 226 213 189 137 284 319 287 281 331 314 319 295 259 244 209
283 312 298 301 303 266 268 292 320 324 262 163 233 252 272 208 219 159 201 229 196 210 199 200 168 126 176 193 211 215 243 220 232 143 195 263 264 244 157 159 143 339 288 281 231
290 278 303 314 261 325 249 222 312 284 270 128 167 166 181 250 185 7 255 259 219 200 197 237 123 163 187 217 230 233 167 251 195 203 248 217 288 222 157 167 110 21 15 320 249
270 259 274 251 325 262 15 328 321 218 282 103 127 59 217 267 125 157 219 225 204 166 203 128 158 168 206 226 190 218 158 183 204 244 294 231 253 153 164 183 37 25 23 34 285
245 246 220 219 247 267 320 303 233 236 53 109 358 181 185 240 155 111 197 230 350 153 215 106 72 127 76 99 260 142 141 164 214 254 245 249 220 193 112 29 4 35 44 48 82
235 233 225 284 311 11 320 272 268 319 88 81 47 210 182 173 165 197 188 183 196 166 170 142 123 109 158 126 140 221 197 215 204 197 255 99 225 35 87 54 60 73 70 69 96
234 229 224 242 279 319 310 247 320 26 259 117 275 219 19 289 141 181 182 199 233 291 173 179 162 169 162 316 210 205 280 274 291 295 85 162 235 93 101 100 105 97 88 86 85
223 220 252 242 218 232 257 271 13 25 341 325 101 231 327 243 276 235 237 197 32 350 311 198 102 113 48 344 326 140 224 8 283 250 269 247 119 134 133 118 116 101 94 87 86
256 249 244 142 166 195 262 275 348 49 317 284 342 178 196 191 195 305 187 73 279 336 329 40 116 28 119 191 82 318 25 198 201 259 252 177 236 120 172 149 134 121 106 99 95
257 245 106 159 192 230 264 340 328 145 233 260 311 280 60 158 189 230 23 109 7 348 305 306 277 123 182 207 164 170 207 235 307 289 302 295 94 51 157 151 143 121 111 109 99
274 237 139 185 233 226 271 21 14 265 212 264 281 297 156 223 231 230 222 18 15 333 223 38 308 159 129 88 347 310 280 246 251 168 245 296 323 103 106 135 148 136 137 120 113
260 237 160 219 257 239 198 252 266 251 243 263 269 287 310 203 219 200 159 54 10 305 351 103 221 161 165 174 176 229 204 244 282 295 266 277 90 109 132 160 169 168 165 159 146
288 233 173 207 265 278 290 270 239 216 258 267 300 247 244 223 246 174 142 115 343 337 338 292 286 306 8 55 80 186 203 216 228 242 263 234 258 178 180 192 188 188 186 174 159
243 255 359 200 234 238 252 284 269 237 230 232 212 244 237 239 207 173 126 137 145 129 251 282 248 272 48 22 326 303 224 211 228 248 275 297 304 325 236 215 216 197 196 198 211
281 259 176 273 287 256 220 251 254 228 245 205 250 215 238 277 353 220 175 196 143 182 212 195 113 294 240 226 277 271 256 247 241 254 267 280 282 324 320 161 182 199 202 232 257
251 279 286 276 229 241 232 242 252 228 194 304 298 209 215 76 60 58 62 54 93 169 166 191 166 224 191 69 286 261 246 230 236 243 255 257 25 103 131 183 200 197 210 259 353